Starlink 4787

operational
NORAD ID: 53904 Int'l Des: 2022-119 Owner: SPXS Country: US Constellation: starlink
LEOCIRCULAR

关于 Starlink 4787

正在加载描述...

实时位置

正在加载3D地球...

即将过境

高度历史

Altitude vs Time

uPlot chart will show altitude changes over time

两行轨道根数

1 53904U 22119U 25304.94163726 -.00007858 00000-0 -47593-3 0 9999
2 53904 53.2162 181.6926 0001311 107.9868 252.1267 15.08855682172250
Epoch: Oct 31, 2025 • Age: 28 hours

当前状态

高度 558.9 km
速度 7.58 km/s
星下点 -52.87°S, 7.87°W
发射日期 Sep 24, 2022
运行时间 3.1 years
类型 internet

技术详情

分类 Payload
质量 305.00 kg
干质量 290.00 kg
总质量 305.00 kg
长度 0.20 m
直径 2.80 m
跨度 9.00 m
形状 Box + pan
制造商 SPXS
平台类型 Starlink
阶段状态 In Orbit
所有者/国家 SPXS/US

大型星座

Loading constellations...